Вернуться в каталог

SITRO-AIS-17

АктивенНавигацияSSO
NORAD 61789·PAYLOAD·🇷🇺 Russia
Это название спутника еще не подтверждено официальными источниками.

Запущен Nov 4, 2024 с Vostochny Cosmodrome

Loading…

Ближайшие Пролёты (ближайшие 24 часа)

TLE

СвежийSource: Space-Track

Эпоха: Sep 14, 2026, 17:27 UTC

1 61789U 24199BG  26257.72742559  .00001593  00000-0  13828-3 0  9992
2 61789  97.3188  91.8236 0006738 123.3705 236.8165 14.98323793145441

Отслеживайте SITRO-AIS-17 в реальном времени с AllMySat

Download on the App Store